Weather History for Meriden, CT

Change the Weather History Date:

Friday, November 9, 2012

  Actual Average (KHVN) Record (KHVN)
Temperature  
Mean Temperature 42 °F -  
Max Temperature 53 °F 50 °F 69 °F (2006)
Min Temperature 32 °F 36 °F 23 °F (1971)
Degree Days  
Heating Degree Days 22    
Moisture  
Dew Point 23 °F    
Average Humidity 51    
Maximum Humidity 82    
Minimum Humidity 25    
Precipitation  
Precipitation 0.00 in - - ()
Sea Level Pressure  
Sea Level Pressure 30.01 in    
Wind  
Wind Speed 8 mph (NNW)    
Max Wind Speed 15 mph    
Max Gust Speed 24 mph    
Visibility 10 miles    
Events      
Averages and records for this station are not official NWS values.
T = Trace of Precipitation, MM = Missing Value Source: NWS Daily Summary

Daily Weather History Graph

Daily Weather History Graph

Search for Another Location

Airport:

Trip Planner

Search our weather history database for the weather conditions in past years. The results will help you decide how hot, cold, wet, or windy it might be!

Date:

Astronomy

Nov. 09, 2012 Rise Set
Actual Time 6:33 AM EST 4:36 PM EST
Civil Twilight 6:03 AM EST 5:05 PM EST
Nautical Twilight 5:30 AM EST 5:39 PM EST
Astronomical Twilight 4:58 AM EST 6:11 PM EST
Moon 1:25 AM EST (11/9) 1:51 PM EST (11/9)
Length of Visible Light 11h 02m
Length of Day
10h 03m
Waning Crescent, 23% of the Moon is Illuminated
Nov 9
Waning Crescent
Nov 13
New
Nov 20
First Quarter
Nov 28
Full
Dec 6
Last Quarter

Hourly Weather History & Observations

Time (EST) Temp. Windchill Dew Point Humidity Pressure Visibility Wind Dir Wind Speed Gust Speed Precip Events Conditions
12:53 AM 39.0 °F 32.8 °F 28.0 °F 65% 29.86 in 10.0 mi NW 9.2 mph - N/A   Scattered Clouds
1:53 AM 37.9 °F 31.5 °F 27.0 °F 65% 29.86 in 10.0 mi NW 9.2 mph - N/A   Clear
2:53 AM 37.9 °F 30.5 °F 26.1 °F 62% 29.88 in 10.0 mi NNW 11.5 mph 24.2 mph N/A   Clear
3:53 AM 37.0 °F 31.6 °F 25.0 °F 62% 29.90 in 10.0 mi NW 6.9 mph - N/A   Clear
4:53 AM 36.0 °F 30.3 °F 24.1 °F 62% 29.93 in 10.0 mi NNW 6.9 mph - N/A   Clear
5:53 AM 34.0 °F 29.8 °F 23.0 °F 64% 29.95 in 10.0 mi NW 4.6 mph - N/A   Clear
6:53 AM 32.0 °F - 23.0 °F 69% 29.97 in 10.0 mi Calm Calm - N/A   Clear
7:53 AM 37.9 °F 33.5 °F 21.9 °F 53% 30.00 in 10.0 mi North 5.8 mph - N/A   Clear
8:53 AM 39.9 °F 35.1 °F 19.9 °F 45% 30.00 in 10.0 mi NNW 6.9 mph - N/A   Clear
9:53 AM 44.1 °F 37.7 °F 18.0 °F 35% 30.01 in 10.0 mi North 12.7 mph 20.7 mph N/A   Clear
10:53 AM 46.0 °F 41.9 °F 17.1 °F 31% 30.02 in 10.0 mi NNW 8.1 mph 18.4 mph N/A   Clear
11:53 AM 48.0 °F - 17.1 °F 29% 30.01 in 10.0 mi NW 11.5 mph 17.3 mph N/A   Clear
12:53 PM 51.1 °F - 19.9 °F 29% 30.01 in 10.0 mi NNW 10.4 mph 18.4 mph N/A   Clear
1:53 PM 52.0 °F - 19.9 °F 28% 30.02 in 10.0 mi Variable 6.9 mph - N/A   Clear
2:53 PM 53.1 °F - 18.0 °F 25% 30.02 in 10.0 mi NW 15.0 mph 20.7 mph N/A   Clear
3:53 PM 51.1 °F - 16.0 °F 25% 30.03 in 10.0 mi NW 10.4 mph 20.7 mph N/A   Clear
4:53 PM 48.9 °F - 19.0 °F 31% 30.06 in 10.0 mi NNW 6.9 mph - N/A   Clear
5:53 PM 46.9 °F - 21.9 °F 37% 30.09 in 10.0 mi NE 6.9 mph - N/A   Clear
6:53 PM 46.0 °F 44.8 °F 26.1 °F 46% 30.12 in 10.0 mi Variable 3.5 mph - N/A   Clear
7:53 PM 41.0 °F - 28.9 °F 62% 30.14 in 10.0 mi Calm Calm - N/A   Clear
8:53 PM 37.9 °F - 30.9 °F 76% 30.14 in 10.0 mi Calm Calm - N/A   Clear
9:53 PM 36.0 °F - 30.9 °F 82% 30.15 in 10.0 mi Calm Calm - N/A   Mostly Cloudy
10:53 PM 37.0 °F - 32.0 °F 82% 30.16 in 10.0 mi Calm Calm - N/A   Overcast